Regional Weather Roundup
Issued by NWS Northern Indiana

Home | Current Version | Previous Version | Graphics & Text | Print | Product List | Glossary On
Versions: 1 2 3 4 5 6 7 8 9 10 11 12 13 14 15 16 17 18 19 20 21 22 23 24 25 26 27 28 29 30 31 32 33 34 35 36 37 38 39 40 41 42 43 44 45 46 47 48 49 50
000
ASUS43 KIWX 270400
RWRIWX

KIWX WEATHER ROUNDUP
NATIONAL WEATHER SERVICE NORTHERN INDIANA
1100 PM EST FRI DEC 26 2014

NOTE: "FAIR" INDICATES FEW OR NO CLOUDS BELOW 12,000 FEET WITH NO
SIGNIFICANT WEATHER AND/OR OBSTRUCTIONS TO VISIBILITY.

* THESE STATIONS ARE NOT UNDER NWS QUALITY CONTROL. THEY ALSO MAY NOT
  REPORT WEATHER SUCH AS PRECIPITATION OR FOG.

INZ001>027-270500-
NORTHERN INDIANA

CITY           SKY/WX    TMP DP  RH WIND       PRES   REMARKS
GARY*          CLOUDY    50  39  66 S8        30.05S
VALPARAISO     CLOUDY    45  41  87 S6        30.07S
KNOX*          CLOUDY    45  37  75 S7        30.07S
SOUTH BEND     CLOUDY    47  40  76 S7        30.08S
GOSHEN         CLOUDY    44  40  85 S7        30.09R
ANGOLA*        CLOUDY    43  39  87 S5        30.09S
FORT WAYNE     CLOUDY    43  39  86 S8        30.13R
PERU/GRISSOM   CLOUDY    46  46 100 S8        30.10R

$$
INZ028>050-270500-
CENTRAL INDIANA

CITY           SKY/WX    TMP DP  RH WIND       PRES   REMARKS
LAFAYETTE      CLOUDY    46  41  82 S6        30.09R
KOKOMO*        CLOUDY    45  39  81 S8        30.11R
MUNCIE*        CLOUDY    47  38  71 S9        30.13R
INDIANAPOLIS   CLOUDY    45  39  79 S10       30.13R

$$
MIZ043>046-050>051-056>058-064>065-071>073-077>080-270500-
SOUTHWEST LOWER MICHIGAN

CITY           SKY/WX    TMP DP  RH WIND       PRES   REMARKS
BATTLE CREEK   CLOUDY    45  40  82 S7        30.09R
BENTON HARBOR  CLOUDY    47  41  80 SW12      30.07R
COLDWATER*     CLOUDY    43  39  85 S3        30.09R
HILLSDALE*     CLOUDY    44  41  91 SW7       30.09R
HOLLAND        CLOUDY    45  39  79 S7        30.06R
GRAND RAPIDS   CLOUDY    44  38  79 S8        30.06S
KALAMAZOO      CLOUDY    46  40  79 SW7       30.09R
STURGIS*       CLOUDY    43  39  87 S5        30.08S
THREE RIVERS*  CLOUDY    44  40  86 S3        30.09R

$$
OHZ001>008-015>018-024>025-270500-
NORTHWEST OHIO

CITY           SKY/WX    TMP DP  RH WIND       PRES   REMARKS
DEFIANCE       CLOUDY    44  38  79 S8        30.13R
FINDLAY        MOCLDY    37  33  85 S9        30.14R
TOLEDO EXPRESS PTCLDY    38  35  89 S6        30.12S
TOLEDO METCALF PTCLDY    41  35  79 S9        30.13F
LIMA           CLOUDY    44  34  67 S9        30.14R

$$
AND FOR LAKE MICHIGAN COASTAL AND OPEN LAKE BUOY OBSERVATIONS

STATION/POSITION TEMP    WIND        PRES    VSBY  WAVE
                 AIR SEA DIR/SP/G                  HT/PER
                 (F)     (DEG/KT/KT) (MB)    (MI)  (FT/S)
CALUMET HARBOR    48     180/  4/  8 1016.1R
MICHIGAN CITY     48     170/ 10/ 11   N/A
SAINT JOSEPH      49     170/  7/ 12 1019.0R

$$
&&


USA.gov is the U.S. government's official web portal to all federal, state and local government web resources and services.